DLH75A EDDF-EDDS

Flight info

Callsign DLH75A
Flight time 0h 36m
Altitude 17000
Route ANEKI2L/18 ANEKI Y163 NEKLO Y171 INKAM N850 KRH T128 BADSO BADSO2A
Aircraft A320/M-SDE3FGHIRWY/LB1

Departure

Time 2026-05-07 18:02
Airport Frankfurt Main Airport (EDDF)

Arrival

Time 2026-05-07 18:39
Airport Stuttgart Airport (EDDS)
Time Latitude Longitude Altitude Speed Heading
2026-05-07 17:26 50.04075 8.55683 351 ft 0 kts 160°
2026-05-07 17:57 50.04057 8.55693 352 ft 6 kts 160°
2026-05-07 17:57 50.04032 8.55707 345 ft 5 kts 160°
2026-05-07 17:57 50.03995 8.55694 353 ft 4 kts 223°
2026-05-07 17:57 50.03983 8.55664 349 ft 3 kts 244°
2026-05-07 17:58 50.03972 8.55620 351 ft 7 kts 249°
2026-05-07 17:58 50.03955 8.55551 348 ft 6 kts 250°
2026-05-07 17:58 50.03936 8.55469 353 ft 12 kts 250°
2026-05-07 17:58 50.03895 8.55293 355 ft 22 kts 250°
2026-05-07 17:59 50.03834 8.55039 352 ft 26 kts 249°
2026-05-07 17:59 50.03776 8.54801 351 ft 17 kts 249°
2026-05-07 17:59 50.03735 8.54629 354 ft 17 kts 250°
2026-05-07 17:59 50.03695 8.54462 349 ft 16 kts 249°
2026-05-07 18:00 50.03656 8.54301 350 ft 17 kts 249°
2026-05-07 18:00 50.03608 8.54102 346 ft 22 kts 250°
2026-05-07 18:00 50.03553 8.53870 345 ft 24 kts 250°
2026-05-07 18:00 50.03493 8.53621 346 ft 25 kts 249°
2026-05-07 18:01 50.03429 8.53354 352 ft 27 kts 249°
2026-05-07 18:01 50.03361 8.53073 353 ft 28 kts 250°
2026-05-07 18:01 50.03292 8.52779 354 ft 30 kts 248°
2026-05-07 18:01 50.03212 8.52591 351 ft 8 kts 179°
2026-05-07 18:02 50.02443 8.52605 353 ft 121 kts 179°
2026-05-07 18:02 50.01414 8.52624 387 ft 168 kts 179°
2026-05-07 18:02 50.00271 8.52628 1126 ft 161 kts 178°
2026-05-07 18:03 49.99145 8.52672 1802 ft 168 kts 178°
2026-05-07 18:03 49.97904 8.52750 2193 ft 189 kts 176°
2026-05-07 18:03 49.96509 8.52855 2563 ft 212 kts 177°
2026-05-07 18:03 49.94963 8.52970 3001 ft 232 kts 177°
2026-05-07 18:04 49.93321 8.53091 3718 ft 240 kts 178°
2026-05-07 18:04 49.91658 8.53211 3949 ft 239 kts 178°
2026-05-07 18:04 49.89991 8.53332 4244 ft 241 kts 178°
2026-05-07 18:04 49.88323 8.53451 5208 ft 241 kts 179°
2026-05-07 18:05 49.86645 8.53567 6138 ft 242 kts 179°
2026-05-07 18:05 49.84956 8.53682 7014 ft 244 kts 179°
2026-05-07 18:05 49.83252 8.53799 7860 ft 247 kts 179°
2026-05-07 18:05 49.82190 8.53873 8379 ft 249 kts 179°
2026-05-07 18:06 49.80453 8.53992 9240 ft 252 kts 179°
2026-05-07 18:06 49.78691 8.54111 10095 ft 255 kts 179°
2026-05-07 18:06 49.76889 8.54005 10638 ft 269 kts 186°
2026-05-07 18:06 49.74940 8.53752 10952 ft 293 kts 187°
2026-05-07 18:07 49.72825 8.53461 11234 ft 317 kts 187°
2026-05-07 18:07 49.70581 8.53149 11526 ft 337 kts 186°
2026-05-07 18:07 49.68212 8.52823 12153 ft 346 kts 186°
2026-05-07 18:07 49.65798 8.52497 12802 ft 351 kts 186°
2026-05-07 18:08 49.63352 8.52174 13449 ft 354 kts 186°
2026-05-07 18:08 49.60881 8.51851 14190 ft 357 kts 186°
2026-05-07 18:08 49.58395 8.51528 14869 ft 361 kts 186°
2026-05-07 18:08 49.55887 8.51205 15548 ft 364 kts 186°
2026-05-07 18:09 49.53355 8.50878 16220 ft 367 kts 186°
2026-05-07 18:09 49.50798 8.50545 16826 ft 371 kts 186°
2026-05-07 18:09 49.48219 8.50207 17016 ft 372 kts 186°
2026-05-07 18:09 49.45596 8.49862 17057 ft 383 kts 186°
2026-05-07 18:10 49.42930 8.49509 17049 ft 386 kts 187°
2026-05-07 18:10 49.40254 8.49158 17057 ft 386 kts 186°
2026-05-07 18:10 49.37568 8.49367 17057 ft 389 kts 169°
2026-05-07 18:10 49.35030 8.50819 17058 ft 393 kts 152°
2026-05-07 18:11 49.32898 8.53432 17057 ft 396 kts 133°
2026-05-07 18:11 49.31795 8.55666 17042 ft 396 kts 125°
2026-05-07 18:11 49.29765 8.60283 16211 ft 382 kts 124°
2026-05-07 18:11 49.28320 8.63610 15590 ft 369 kts 124°
2026-05-07 18:12 49.26917 8.66852 14960 ft 362 kts 124°
2026-05-07 18:12 49.25535 8.70036 14345 ft 357 kts 124°
2026-05-07 18:12 49.24166 8.73174 13738 ft 353 kts 124°
2026-05-07 18:12 49.22805 8.76276 13297 ft 349 kts 124°
2026-05-07 18:13 49.21450 8.79355 12825 ft 347 kts 124°
2026-05-07 18:13 49.20106 8.82398 12343 ft 345 kts 124°
2026-05-07 18:13 49.18783 8.85389 12071 ft 344 kts 125°
2026-05-07 18:13 49.17425 8.88454 12051 ft 343 kts 125°
2026-05-07 18:14 49.16111 8.91420 11700 ft 341 kts 125°
2026-05-07 18:14 49.14784 8.94418 11217 ft 340 kts 125°
2026-05-07 18:14 49.13464 8.97401 11054 ft 340 kts 125°
2026-05-07 18:14 49.12140 9.00388 11064 ft 340 kts 125°
2026-05-07 18:15 49.10812 9.03381 11061 ft 340 kts 125°
2026-05-07 18:15 49.09485 9.06368 11060 ft 340 kts 125°
2026-05-07 18:15 49.08152 9.09362 11062 ft 341 kts 125°
2026-05-07 18:15 49.06828 9.12330 10747 ft 337 kts 125°
2026-05-07 18:16 49.05510 9.15278 10279 ft 336 kts 126°
2026-05-07 18:16 49.04202 9.18202 9946 ft 329 kts 126°
2026-05-07 18:16 49.02962 9.20981 9789 ft 305 kts 126°
2026-05-07 18:16 49.01794 9.23594 9327 ft 294 kts 126°
2026-05-07 18:17 49.00648 9.26152 8750 ft 292 kts 126°
2026-05-07 18:17 48.99477 9.28662 8370 ft 289 kts 133°
2026-05-07 18:17 48.98000 9.30690 7995 ft 285 kts 143°
2026-05-07 18:17 48.96445 9.32562 7610 ft 284 kts 144°
2026-05-07 18:18 48.94894 9.34405 7232 ft 282 kts 144°
2026-05-07 18:18 48.93345 9.36241 6848 ft 281 kts 144°
2026-05-07 18:18 48.91809 9.38055 6478 ft 279 kts 144°
2026-05-07 18:18 48.90274 9.39854 6057 ft 278 kts 144°
2026-05-07 18:19 48.88746 9.41630 5665 ft 276 kts 144°
2026-05-07 18:19 48.87236 9.43366 5273 ft 275 kts 144°
2026-05-07 18:19 48.85697 9.45123 4879 ft 272 kts 144°
2026-05-07 18:19 48.84204 9.46815 4436 ft 271 kts 144°
2026-05-07 18:20 48.82689 9.48522 4057 ft 269 kts 143°
2026-05-07 18:20 48.81189 9.50171 4008 ft 260 kts 144°
2026-05-07 18:20 48.79727 9.51616 4009 ft 244 kts 158°
2026-05-07 18:20 48.78089 9.51984 4018 ft 239 kts 187°
2026-05-07 18:21 48.76492 9.51404 4011 ft 231 kts 205°
2026-05-07 18:21 48.75176 9.50199 4010 ft 213 kts 223°
2026-05-07 18:21 48.74216 9.48598 4015 ft 198 kts 238°
2026-05-07 18:21 48.73618 9.46789 4032 ft 190 kts 253°
2026-05-07 18:22 48.73251 9.44874 3941 ft 188 kts 256°
2026-05-07 18:22 48.73015 9.43609 3805 ft 188 kts 256°
2026-05-07 18:22 48.72538 9.41060 3496 ft 187 kts 257°
2026-05-07 18:22 48.72183 9.39163 3249 ft 187 kts 256°
2026-05-07 18:23 48.71837 9.37323 2985 ft 176 kts 257°
2026-05-07 18:23 48.71517 9.35623 2774 ft 164 kts 256°
2026-05-07 18:23 48.71219 9.34037 2549 ft 151 kts 256°
2026-05-07 18:23 48.70936 9.32533 2347 ft 147 kts 258°
2026-05-07 18:24 48.70659 9.31061 2148 ft 144 kts 257°
2026-05-07 18:24 48.70385 9.29603 1941 ft 144 kts 257°
2026-05-07 18:24 48.70113 9.28155 1788 ft 143 kts 257°
2026-05-07 18:24 48.69850 9.26713 1627 ft 142 kts 256°
2026-05-07 18:25 48.69568 9.25286 1462 ft 141 kts 257°
2026-05-07 18:25 48.69300 9.23878 1297 ft 133 kts 257°
2026-05-07 18:25 48.69063 9.22626 1419 ft 127 kts 258°
2026-05-07 18:25 48.68814 9.21239 1987 ft 149 kts 256°
2026-05-07 18:26 48.68523 9.19608 2612 ft 168 kts 256°
2026-05-07 18:26 48.68181 9.17821 2883 ft 186 kts 256°
2026-05-07 18:26 48.67806 9.15891 3155 ft 195 kts 255°
2026-05-07 18:26 48.67421 9.13918 3487 ft 199 kts 255°
2026-05-07 18:27 48.67013 9.11813 3645 ft 216 kts 255°
2026-05-07 18:27 48.66717 9.09566 4040 ft 219 kts 273°
2026-05-07 18:27 48.67194 9.07405 4535 ft 220 kts 308°
2026-05-07 18:27 48.67930 9.06359 4883 ft 223 kts 328°
2026-05-07 18:28 48.69920 9.05747 5007 ft 223 kts 12°
2026-05-07 18:28 48.71280 9.06776 5018 ft 224 kts 38°
2026-05-07 18:28 48.72439 9.08372 5020 ft 225 kts 43°
2026-05-07 18:28 48.73554 9.10056 5013 ft 227 kts 44°
2026-05-07 18:29 48.74662 9.11762 5010 ft 227 kts 44°
2026-05-07 18:29 48.75646 9.13632 4996 ft 229 kts 64°
2026-05-07 18:29 48.76177 9.15907 5014 ft 230 kts 73°
2026-05-07 18:29 48.76606 9.18246 5010 ft 230 kts 73°
2026-05-07 18:30 48.77020 9.20587 4994 ft 229 kts 73°
2026-05-07 18:30 48.77423 9.22911 4742 ft 228 kts 74°
2026-05-07 18:30 48.77823 9.25232 4471 ft 227 kts 74°
2026-05-07 18:30 48.78222 9.27538 4219 ft 226 kts 73°
2026-05-07 18:31 48.78621 9.29866 4008 ft 231 kts 74°
2026-05-07 18:31 48.79026 9.32253 4011 ft 235 kts 73°
2026-05-07 18:31 48.79435 9.34652 4010 ft 235 kts 74°
2026-05-07 18:31 48.79847 9.37058 4012 ft 236 kts 74°
2026-05-07 18:32 48.80253 9.39463 4020 ft 236 kts 74°
2026-05-07 18:32 48.80664 9.41872 4020 ft 236 kts 74°
2026-05-07 18:32 48.81078 9.44278 4019 ft 236 kts 73°
2026-05-07 18:32 48.81486 9.46683 4018 ft 236 kts 74°
2026-05-07 18:33 48.81611 9.49153 4012 ft 237 kts 101°
2026-05-07 18:33 48.80884 9.51374 4018 ft 238 kts 133°
2026-05-07 18:33 48.79520 9.52761 4021 ft 237 kts 159°
2026-05-07 18:33 48.77909 9.53227 4019 ft 234 kts 182°
2026-05-07 18:34 48.76868 9.53012 4011 ft 223 kts 197°
2026-05-07 18:34 48.75169 9.51611 4031 ft 200 kts 225°
2026-05-07 18:34 48.74557 9.50571 4034 ft 194 kts 237°
2026-05-07 18:34 48.73979 9.48770 4021 ft 189 kts 255°
2026-05-07 18:35 48.73508 9.46252 4014 ft 187 kts 256°
2026-05-07 18:35 48.73269 9.44969 3947 ft 187 kts 257°
2026-05-07 18:35 48.72915 9.43074 3747 ft 187 kts 257°
2026-05-07 18:35 48.72561 9.41178 3512 ft 187 kts 256°
2026-05-07 18:36 48.72206 9.39285 3268 ft 187 kts 256°
2026-05-07 18:36 48.71849 9.37384 2996 ft 187 kts 256°
2026-05-07 18:36 48.71498 9.35515 2752 ft 187 kts 256°
2026-05-07 18:36 48.71148 9.33651 2508 ft 178 kts 256°
2026-05-07 18:37 48.70820 9.31914 2280 ft 162 kts 256°
2026-05-07 18:37 48.70522 9.30339 2013 ft 150 kts 256°
2026-05-07 18:37 48.70247 9.28850 1903 ft 146 kts 256°
2026-05-07 18:37 48.69962 9.27375 1720 ft 146 kts 255°
2026-05-07 18:38 48.69680 9.25901 1532 ft 146 kts 256°
2026-05-07 18:38 48.69411 9.24427 1347 ft 146 kts 256°
2026-05-07 18:38 48.69152 9.23041 1286 ft 123 kts 254°
2026-05-07 18:38 48.68961 9.22032 1288 ft 79 kts 254°
2026-05-07 18:39 48.68835 9.21386 1285 ft 44 kts 252°
2026-05-07 18:39 48.68827 9.21038 1285 ft 19 kts 284°
2026-05-07 18:39 48.68843 9.20947 1285 ft 3 kts 285°
2026-05-07 18:39 48.68847 9.20922 1288 ft 2 kts 284°
2026-05-07 18:40 48.68850 9.20904 1288 ft 3 kts 284°
2026-05-07 18:40 48.68869 9.20796 1288 ft 15 kts 284°
2026-05-07 18:40 48.68880 9.20708 1285 ft 8 kts 270°
2026-05-07 18:40 48.68868 9.20634 1285 ft 7 kts 253°
2026-05-07 18:41 48.68855 9.20571 1287 ft 6 kts 254°
2026-05-07 18:41 48.68845 9.20517 1289 ft 5 kts 254°
2026-05-07 18:41 48.68837 9.20472 1285 ft 4 kts 254°
2026-05-07 18:41 48.68822 9.20392 1286 ft 14 kts 254°
2026-05-07 18:42 48.68788 9.20218 1288 ft 18 kts 254°
2026-05-07 18:42 48.68760 9.20030 1286 ft 17 kts 280°
2026-05-07 18:42 48.68760 9.19857 1290 ft 16 kts 255°
2026-05-07 18:42 48.68733 9.19700 1285 ft 15 kts 256°
2026-05-07 18:43 48.68705 9.19563 1286 ft 13 kts 252°
2026-05-07 18:43 48.68680 9.19441 1285 ft 11 kts 255°
2026-05-07 18:43 48.68657 9.19319 1287 ft 13 kts 253°
2026-05-07 18:43 48.68647 9.19198 1289 ft 11 kts 294°
2026-05-07 18:44 48.68709 9.19155 1287 ft 10 kts 344°
2026-05-07 18:44 48.68767 9.19182 1285 ft 10 kts 66°
2026-05-07 18:44 48.68788 9.19287 1286 ft 11 kts 73°
2026-05-07 18:44 48.68808 9.19385 1290 ft 8 kts 73°
2026-05-07 18:45 48.68839 9.19449 1285 ft 8 kts 12°
2026-05-07 18:45 48.68871 9.19441 1285 ft 3 kts 345°
2026-05-07 18:45 48.68889 9.19433 1287 ft 2 kts 343°
2026-05-07 18:45 48.68898 9.19429 1288 ft 0 kts 343°
2026-05-07 18:46 48.68898 9.19428 1288 ft 0 kts 343°